ECMWFFLT2_925_thetae_132.txt.gz
Theta_e
340 340 341 341 341 341 341 341 341 341 341 340 338 339 338 332 325 317 314 311 308 307 307 308 312 317 321 321 322 322 321 322 326 329 330 331 331 331 331 331 331 331 331 331 331 330 329 328 328 327 326 332 337 336 337 337 337 336 335 335 336 336
340 340 341 341 341 341 341 341 341 341 340 338 338 338 334 328 321 316 320 320 317 316 313 312 313 316 320 321 321 322 323 322 324 327 328 330 330 330 330 330 331 330 330 330 329 329 327 326 328 328 326 331 336 337 338 337 337 336 335 335 336 336
340 340 341 341 341 341 341 341 341 340 339 337 337 336 330 326 320 317 328 334 332 331 328 325 320 315 316 319 321 321 323 324 323 324 324 325 325 326 328 328 329 329 328 327 325 324 323 324 329 329 328 332 336 337 338 337 336 335 334 334 335 335
340 341 341 341 340 341 341 340 340 340 337 336 336 333 327 325 320 315 327 337 338 338 337 337 334 326 318 316 318 320 322 323 324 324 323 322 321 322 322 322 323 322 322 321 322 325 325 327 330 330 331 335 336 337 337 335 333 331 331 333 333 334
340 341 341 342 341 340 340 339 340 339 337 336 334 331 327 324 319 316 326 336 339 339 339 340 341 338 329 318 315 316 318 320 320 322 322 322 321 320 320 319 320 321 321 323 327 330 331 331 332 332 333 336 336 337 335 331 328 327 329 331 331 331
339 341 341 341 341 340 340 339 340 338 336 335 332 329 326 323 324 327 332 338 339 339 340 340 341 341 335 326 321 319 317 316 317 318 318 322 325 325 325 323 325 328 327 329 332 333 333 332 333 333 334 336 337 336 333 328 327 326 327 327 326 326
339 340 341 341 340 340 339 338 339 338 335 334 331 328 325 327 332 335 336 338 340 340 340 340 341 340 337 333 332 330 326 321 319 323 325 331 334 333 332 330 332 334 331 332 334 334 333 332 333 333 334 336 337 335 331 327 326 325 325 324 323 323
338 339 340 340 340 339 338 338 338 337 335 333 330 326 327 333 336 336 337 339 340 340 340 340 340 339 338 338 337 336 335 331 330 333 335 336 337 337 336 334 335 335 332 333 334 334 334 333 333 333 334 336 337 334 330 327 325 325 324 323 322 321
340 340 340 340 339 338 337 338 337 336 335 332 329 328 332 337 336 337 338 338 339 340 340 340 340 339 338 339 339 338 339 338 337 338 337 337 337 337 337 335 335 335 334 334 335 335 335 334 334 334 335 336 336 333 329 327 325 324 323 322 320 318
340 340 341 341 341 339 337 338 337 336 334 332 332 334 336 338 337 338 339 338 339 339 339 339 340 340 339 339 339 339 339 339 339 338 338 338 337 337 337 336 335 335 334 335 335 335 335 334 333 334 336 337 336 332 328 326 325 324 322 321 319 316
341 341 342 343 342 339 338 339 338 337 335 332 335 337 338 338 338 338 339 339 339 339 339 339 340 340 339 339 339 339 339 339 339 338 338 338 337 337 338 338 336 334 335 335 334 334 335 334 333 334 336 337 337 332 327 326 324 323 321 319 317 315
342 342 342 343 343 340 338 339 340 339 335 334 338 338 338 339 338 338 339 338 339 340 340 340 340 340 340 340 339 339 340 339 338 339 338 338 338 337 337 337 335 334 334 335 334 333 333 333 331 333 335 336 336 331 327 326 325 323 321 318 315 314
342 342 342 342 343 340 338 341 342 340 336 335 339 339 338 338 337 338 338 338 339 340 340 341 340 339 339 340 339 339 340 339 339 339 339 339 338 337 337 336 335 335 335 335 333 332 332 330 329 330 332 334 334 330 327 326 325 323 319 316 314 312
342 342 342 342 343 341 339 341 343 341 338 337 339 339 338 338 338 339 338 338 339 340 340 341 340 339 339 339 339 340 340 339 339 339 339 339 338 337 336 335 335 335 334 334 331 330 330 328 326 327 327 329 329 327 325 323 322 319 316 313 311 310
342 342 343 342 342 342 340 342 342 341 340 339 339 338 337 338 338 339 339 339 340 340 340 340 340 339 339 339 339 339 340 340 339 340 340 339 338 337 335 335 335 334 331 330 329 328 328 326 325 324 323 323 323 321 320 318 317 315 313 311 309 308
342 342 342 341 341 341 341 342 342 341 340 339 338 338 337 337 337 338 339 340 340 340 340 340 339 338 338 338 339 339 340 340 340 339 338 337 336 336 334 334 334 333 330 328 327 326 325 325 324 322 322 321 320 319 317 316 314 312 309 308 307 306
341 342 341 341 340 341 342 342 341 340 340 339 338 338 337 337 337 338 339 340 340 340 340 340 339 338 338 337 338 339 340 340 339 338 337 335 335 335 334 334 332 331 331 328 326 325 324 323 323 321 320 319 318 318 316 315 313 311 308 308 307 306
341 341 341 341 341 341 342 341 341 340 339 338 338 338 337 338 338 338 339 339 339 340 341 339 339 339 338 337 337 338 339 339 338 336 336 335 334 334 333 333 332 330 330 328 326 325 323 322 321 320 318 317 317 316 315 314 312 310 309 310 309 308
340 341 341 341 341 341 341 341 340 340 339 338 338 338 337 338 339 339 338 339 340 341 340 339 339 339 338 337 337 337 337 337 336 335 335 334 334 333 332 332 332 330 328 327 326 325 323 321 319 318 316 315 314 314 313 312 310 310 310 310 309 309
340 340 341 340 340 341 341 341 340 339 339 338 338 338 339 340 340 339 339 340 340 340 339 339 339 339 338 337 337 337 336 336 336 335 333 333 333 333 332 331 330 330 328 325 324 324 323 322 319 315 314 313 313 312 311 310 310 310 310 310 310 309
340 340 341 340 340 341 341 340 340 339 339 338 338 339 340 340 340 340 339 340 341 339 339 339 339 339 338 337 336 336 336 335 334 334 333 333 332 332 332 330 329 330 328 325 322 321 322 321 317 314 312 312 312 311 311 310 309 309 309 308 309 309
340 340 341 340 341 341 340 340 339 339 339 339 339 339 340 340 339 340 339 340 340 339 339 339 338 338 337 337 336 335 335 334 333 333 334 333 331 330 329 329 328 328 327 325 322 320 321 319 315 312 311 311 310 310 310 309 309 308 306 305 304 307
339 340 341 341 341 340 340 340 339 339 339 339 339 339 339 338 338 339 339 339 339 339 338 338 337 337 336 336 335 335 334 334 333 333 334 333 331 329 327 327 327 327 325 324 322 320 319 317 314 312 311 313 313 310 309 308 309 308 305 304 302 303
339 340 340 341 341 340 340 339 339 339 338 339 339 338 338 338 338 339 340 339 338 338 337 337 337 336 336 336 335 335 334 334 333 334 334 333 332 329 326 326 327 327 325 323 319 317 318 317 316 314 314 317 314 312 313 310 307 307 306 306 304 303
339 340 340 340 340 340 339 339 339 339 338 339 338 337 338 339 340 339 339 338 338 338 337 336 336 336 336 335 335 334 334 334 333 333 332 331 332 329 326 326 327 326 326 325 320 316 318 321 319 316 318 319 317 320 324 315 307 308 308 308 306 303
339 340 340 340 340 340 339 339 339 338 338 338 337 337 338 340 340 339 338 338 337 337 336 336 336 336 336 335 335 334 333 332 331 331 330 329 329 326 324 325 326 327 326 326 323 317 318 323 322 319 320 321 320 325 324 314 310 311 309 308 309 307
340 340 340 340 340 340 339 339 338 338 338 338 337 337 338 339 339 339 338 337 336 336 336 336 336 335 335 335 334 333 332 331 330 329 329 328 327 325 323 324 324 325 326 325 325 319 318 322 322 320 321 320 318 322 320 312 311 314 312 309 308 308
340 341 340 340 340 340 339 338 338 338 338 337 337 337 338 338 338 338 338 336 336 336 336 335 335 335 334 334 333 332 331 330 329 328 328 326 325 324 324 323 322 322 324 325 325 323 320 322 321 319 318 318 317 318 318 314 311 313 316 314 310 307
340 341 341 341 340 340 339 338 337 337 337 337 337 337 338 338 338 338 337 336 335 335 334 334 334 334 333 332 331 331 330 329 327 327 327 325 323 323 323 323 322 320 321 324 325 325 323 322 322 319 314 314 316 315 314 314 312 310 313 317 315 310
341 341 341 341 341 340 339 338 337 337 337 337 337 337 338 338 337 337 336 335 334 332 332 332 331 331 330 330 329 328 327 327 326 326 325 324 321 321 321 321 321 319 319 321 322 324 324 322 321 318 312 312 314 313 311 311 312 311 311 313 315 311
341 341 341 341 341 340 339 338 337 337 337 336 337 337 337 337 336 335 334 333 332 331 330 330 330 329 328 328 327 326 325 325 325 324 323 322 321 320 319 319 319 318 317 315 315 316 317 316 315 313 311 311 312 311 310 310 310 311 310 309 312 312
340 341 341 341 340 340 339 338 337 337 336 336 337 337 337 336 335 334 333 332 331 330 329 329 328 328 327 326 325 324 323 323 323 323 322 321 320 320 319 318 317 316 314 313 311 311 311 311 311 311 310 310 311 310 309 309 309 310 310 309 310 309
340 341 341 340 340 340 338 338 337 336 336 336 337 337 337 336 334 334 333 332 330 329 329 328 327 327 326 324 323 321 321 320 319 318 319 319 319 319 319 319 316 314 313 312 311 311 311 311 311 310 310 310 309 309 308 308 308 308 309 308 308 307
340 340 340 341 340 339 338 338 337 336 336 336 336 336 336 335 334 334 333 332 331 330 329 328 327 326 324 322 320 319 319 318 316 315 316 316 316 316 317 318 317 315 313 313 312 312 312 312 311 310 310 309 308 308 307 307 307 307 307 308 307 307
340 340 340 340 340 339 338 337 337 336 336 336 336 336 336 335 334 333 333 332 331 331 330 328 327 325 322 320 318 318 317 316 315 315 314 312 313 314 314 315 315 314 313 312 312 312 311 310 310 309 309 308 307 306 306 306 306 305 305 306 307 306
340 340 340 339 339 339 338 337 337 336 336 336 335 335 335 334 333 333 332 332 332 330 329 327 326 323 321 319 318 317 316 315 315 313 311 309 310 312 313 313 313 313 312 311 310 310 309 309 309 308 308 307 306 305 304 304 304 303 303 304 305 306
340 340 339 339 339 338 338 337 337 336 336 336 335 335 334 333 333 332 332 332 331 329 328 326 325 322 319 318 317 316 315 314 313 311 309 308 309 310 311 311 311 311 310 309 309 308 308 307 307 306 306 305 305 304 303 303 303 303 302 302 303 304

ECMWFFLT2_925_thetae_138.txt.gz
Theta_e
341 340 340 340 340 340 339 339 340 340 341 340 340 340 339 338 338 335 333 330 329 324 319 324 330 330 329 330 332 334 335 335 334 331 329 330 330 330 330 329 330 330 330 329 328 326 326 326 326 331 335 336 336 335 335 334 335 335 336 336 335 335
341 341 340 340 340 340 340 340 341 340 340 340 340 340 339 339 336 332 328 324 320 316 312 317 325 328 326 326 328 329 332 334 333 331 329 330 329 330 330 330 330 330 330 329 327 324 325 327 327 333 336 336 336 335 335 335 335 335 335 335 335 334
340 341 340 339 340 340 339 340 341 341 340 340 340 340 339 338 332 323 319 315 312 311 311 312 318 324 323 323 325 326 329 331 332 330 329 330 330 330 330 330 330 330 330 329 325 322 326 327 329 335 337 336 336 335 335 334 334 334 335 335 334 333
340 340 339 339 339 340 340 340 341 340 340 340 340 339 338 335 325 317 313 310 309 308 310 312 318 325 324 323 324 327 329 329 330 329 329 330 329 330 330 330 330 330 329 326 322 323 327 328 331 337 337 336 335 334 333 332 332 332 333 333 333 333
340 340 339 339 339 340 340 341 341 340 340 340 340 339 337 331 320 315 311 309 308 308 311 314 319 324 324 323 324 326 327 328 329 329 329 330 329 329 329 330 329 328 325 322 322 326 329 330 333 337 336 335 334 331 330 329 329 329 330 330 330 330
340 339 337 338 340 340 340 341 341 340 340 340 340 337 336 328 318 317 316 314 313 311 313 315 318 320 321 322 323 323 324 325 327 328 328 328 328 328 328 327 325 323 322 322 324 326 329 331 333 336 336 333 331 328 327 327 326 325 325 325 323 323
340 339 337 338 340 340 340 341 341 340 339 340 339 337 334 326 320 325 327 326 325 320 318 317 317 317 317 319 320 322 323 322 323 324 324 324 324 323 323 322 322 324 326 327 326 326 329 332 334 336 335 331 329 327 326 325 324 323 322 319 317 315
340 339 338 338 340 340 340 341 341 340 339 339 339 337 332 323 323 333 335 334 335 333 330 327 324 320 318 318 318 318 319 320 320 320 320 321 321 321 322 323 327 330 330 330 329 329 330 332 335 335 333 330 327 326 325 324 323 321 320 317 313 308
339 339 338 338 339 340 340 341 340 339 339 340 339 337 331 323 324 333 337 337 337 338 337 335 332 329 327 325 323 321 319 318 318 319 322 326 328 329 329 330 333 332 331 332 332 332 331 333 335 334 332 329 327 326 325 324 323 321 319 316 312 307
338 339 339 338 339 340 340 340 339 339 338 339 338 336 331 324 323 327 333 337 337 338 338 337 336 335 334 333 332 331 329 326 324 327 331 333 335 335 334 333 334 332 332 333 333 333 332 334 335 332 330 328 326 325 325 324 323 321 319 317 313 308
338 339 338 338 339 340 340 339 339 339 338 337 337 336 331 326 323 320 327 336 337 337 337 337 338 337 336 336 337 336 336 335 333 335 336 336 337 336 336 335 334 333 333 334 333 332 332 334 334 331 329 328 326 325 325 324 323 320 318 316 314 309
339 338 339 339 338 339 339 339 339 338 337 336 336 335 331 327 323 319 326 336 337 337 338 337 338 338 338 337 338 338 338 337 337 337 337 337 337 336 336 336 335 334 334 334 333 333 333 334 332 329 328 327 325 325 324 323 322 319 318 316 313 308
339 339 339 338 338 339 339 338 339 337 336 335 335 334 331 326 323 325 332 336 337 337 338 338 338 338 339 338 338 338 338 338 338 338 337 337 337 336 336 337 335 334 334 334 333 333 334 333 331 328 327 326 325 324 323 322 321 318 316 313 309 305
338 338 338 338 338 339 338 338 338 336 334 334 334 333 330 326 326 332 335 336 337 337 337 338 338 338 339 339 339 339 338 338 338 338 338 337 337 336 336 338 335 333 335 334 333 334 333 333 330 327 326 325 325 324 324 322 318 315 313 309 306 303
338 338 338 338 339 339 338 338 337 335 334 335 334 333 330 326 329 335 335 336 337 337 337 338 338 338 339 339 339 339 338 338 338 338 338 337 337 337 337 338 337 334 334 334 334 334 334 333 330 327 326 324 324 325 323 320 315 312 309 306 303 300
338 338 338 339 339 339 338 338 336 334 334 335 334 333 329 327 332 335 335 336 337 337 337 337 338 339 339 339 339 339 339 338 338 338 338 338 338 338 337 337 336 334 333 333 333 334 334 333 329 327 325 324 324 323 320 315 312 309 305 302 300 298
338 338 338 339 339 339 338 337 336 334 334 335 334 334 330 328 333 336 336 336 337 337 338 338 339 339 339 339 339 339 338 338 338 338 338 338 338 337 337 336 334 332 333 332 332 333 333 332 329 326 324 324 323 320 315 312 309 306 303 300 298 297
339 338 338 339 339 339 338 337 336 335 335 335 335 334 331 329 333 336 337 337 337 337 337 338 338 339 339 339 339 338 338 338 338 338 338 338 338 337 336 335 333 331 332 332 331 332 332 331 328 324 323 323 320 315 312 310 308 306 304 302 300 299
339 339 338 339 339 338 338 338 338 337 335 335 336 335 333 331 334 336 337 337 337 337 337 338 338 339 339 339 339 338 338 338 338 339 339 338 338 336 334 334 333 330 329 330 330 331 331 330 326 324 323 320 315 312 310 309 308 307 306 305 303 301
339 339 339 339 339 339 339 339 339 339 337 337 337 337 334 333 335 337 337 337 337 337 338 338 338 339 339 339 339 338 338 338 339 339 339 338 337 335 334 333 332 330 328 327 328 329 330 329 325 320 318 315 311 310 309 309 309 308 308 307 306 305
340 339 339 339 339 339 340 340 340 339 338 337 339 338 335 334 335 337 338 338 337 337 338 338 339 339 340 339 338 337 337 338 339 339 338 338 336 334 333 332 330 328 328 326 324 324 326 325 319 314 312 311 310 310 309 309 309 309 309 308 307 306
340 340 340 339 339 340 340 341 340 339 338 338 340 338 336 335 336 337 338 338 337 337 338 338 339 340 340 339 337 337 337 338 339 338 337 336 334 333 332 331 329 326 324 325 323 320 321 320 315 310 309 309 309 309 309 308 309 309 309 309 308 307
340 340 340 340 340 340 340 341 341 339 337 339 340 338 337 337 338 338 338 337 337 337 337 338 339 340 340 338 337 337 336 338 339 337 336 334 333 332 331 330 329 327 323 321 319 318 318 318 315 311 310 312 312 311 310 308 308 308 308 308 308 307
340 340 340 340 340 340 341 341 341 339 338 339 340 339 339 339 339 338 338 338 337 337 337 338 339 340 340 338 337 336 337 338 338 336 335 334 333 331 331 329 328 328 325 320 316 316 317 317 317 315 313 314 311 310 313 311 307 308 307 307 307 308
339 340 340 340 340 340 340 340 340 339 339 339 339 340 339 339 339 338 338 337 337 337 338 339 339 340 339 338 337 336 336 337 337 336 334 333 333 332 331 330 328 328 327 324 318 316 317 317 317 319 317 315 311 313 318 312 307 307 307 307 306 307
339 339 340 340 340 340 340 340 340 339 338 338 338 338 339 338 338 338 337 337 337 338 338 339 340 340 339 338 337 336 336 336 335 335 334 333 333 332 331 330 329 328 327 327 324 318 317 317 317 317 317 315 313 317 318 310 306 308 306 306 306 306
339 339 339 339 340 340 340 340 339 339 338 337 337 337 338 338 338 338 337 337 338 338 339 340 340 339 338 338 338 336 336 335 335 334 333 333 332 332 331 329 329 329 327 327 326 322 319 318 316 315 315 314 314 318 316 307 307 310 308 307 305 305
338 339 339 339 339 339 340 339 339 338 338 338 338 337 338 338 337 338 338 338 338 339 339 339 340 339 338 338 338 337 335 335 334 334 333 332 332 332 331 330 328 328 328 326 326 325 322 320 318 316 314 314 317 319 317 309 305 307 311 311 308 306
338 339 339 338 339 339 339 339 338 338 338 338 338 338 338 337 337 338 338 339 339 339 339 339 339 338 338 338 337 337 335 334 334 333 333 332 332 332 331 330 329 328 327 326 326 325 324 322 321 319 316 315 317 318 316 311 305 304 309 312 311 309
338 338 338 339 339 339 338 338 338 338 338 337 337 337 337 337 337 338 338 339 339 338 339 338 338 337 337 337 336 336 335 334 334 333 333 333 332 331 331 330 329 328 327 326 325 324 324 324 322 321 319 316 317 317 314 311 307 306 307 309 310 309
338 338 338 339 338 338 338 338 338 338 337 337 337 337 337 337 337 337 337 338 338 338 338 338 338 337 336 336 335 335 334 334 334 333 333 332 331 331 331 330 328 327 326 326 326 325 323 323 322 321 320 318 318 318 317 315 312 310 308 308 311 309
337 338 338 338 338 338 338 338 338 338 337 337 337 337 336 336 336 336 337 337 337 337 337 337 337 336 335 335 334 334 333 333 334 333 333 332 331 331 330 329 327 325 324 324 325 325 323 323 322 321 321 320 319 320 320 320 319 316 312 310 312 309
337 337 338 338 338 338 337 338 338 337 337 337 337 337 337 336 336 336 336 337 337 337 337 336 336 335 334 334 334 333 333 333 334 334 333 332 330 330 328 327 326 325 323 322 323 323 323 324 323 322 322 321 320 320 320 320 319 318 315 311 310 307
337 337 337 338 338 337 338 337 337 337 337 337 337 337 337 337 336 336 336 337 337 337 337 336 336 335 334 333 333 333 333 333 333 333 332 331 329 328 326 325 324 323 322 321 321 321 321 322 323 322 322 321 320 319 318 317 316 315 313 311 310 307
337 337 337 337 337 337 337 337 337 337 337 337 337 337 337 337 337 337 337 337 337 337 337 336 336 335 334 333 332 332 333 333 332 332 330 328 326 326 325 324 322 321 320 320 319 319 319 320 321 322 322 321 320 318 315 314 313 312 311 312 311 308
337 337 337 337 337 337 337 337 337 337 337 337 337 336 336 337 337 337 337 337 337 337 337 336 336 335 334 333 333 332 332 331 331 329 328 327 325 325 324 323 321 319 319 318 317 317 316 317 318 319 319 318 316 315 313 311 310 309 309 310 310 309
337 337 337 337 337 337 337 337 336 336 337 337 336 337 336 336 336 337 336 336 336 336 336 336 336 335 334 333 333 333 332 331 329 329 328 326 324 323 322 322 320 319 318 318 316 314 313 313 313 313 312 312 311 310 309 309 308 307 307 308 308 308

ECMWFFLT2_925_thetae_141.txt.gz
Theta_e
341 341 341 340 339 340 340 340 340 340 340 340 340 340 339 338 338 336 334 332 331 331 332 332 332 333 334 335 336 336 335 334 333 331 330 330 329 329 329 329 329 328 328 328 327 326 330 334 336 336 336 335 335 337 338 337 338 338 338 338 338 336
341 341 342 340 340 340 340 340 340 340 340 341 340 340 339 339 339 337 335 333 332 331 331 333 332 333 334 334 335 335 336 335 333 332 330 330 330 330 329 329 329 328 329 327 325 330 333 334 336 336 335 335 336 338 338 337 337 337 338 338 337 335
341 341 342 341 340 341 341 340 340 341 341 342 341 340 340 339 339 337 334 333 331 329 330 332 331 332 332 332 334 335 336 334 333 332 331 330 330 330 330 329 330 328 329 326 324 332 336 335 337 337 336 336 337 337 337 336 336 336 337 336 334 334
341 342 341 341 340 341 341 341 341 341 341 342 341 341 340 339 339 335 331 330 330 328 328 331 331 331 331 331 333 333 334 334 332 333 331 331 330 330 330 329 330 329 327 324 322 331 336 335 337 337 336 337 336 336 335 334 334 334 334 333 333 333
341 342 341 341 341 341 341 341 341 341 342 341 341 341 340 339 337 334 331 328 328 327 325 330 332 332 332 331 332 332 333 334 333 333 332 331 330 329 330 329 329 327 324 322 322 329 335 335 337 337 336 335 335 335 333 333 332 333 332 331 331 331
341 342 341 340 340 341 340 341 341 341 341 341 341 341 340 338 335 333 331 326 325 326 324 327 332 332 332 331 331 332 332 333 334 334 332 331 330 329 330 329 328 324 321 322 324 330 335 336 336 336 335 334 333 332 331 331 329 329 330 330 328 326
341 341 341 340 340 340 340 341 341 341 341 341 340 340 340 338 334 329 325 320 319 321 320 325 332 332 331 331 331 332 332 333 333 332 331 330 330 329 329 327 325 322 321 323 325 332 336 335 336 335 334 333 331 329 327 326 324 325 326 325 321 318
342 341 341 340 340 341 340 341 341 340 341 341 340 340 339 337 331 323 316 313 312 313 315 321 329 331 330 329 329 330 331 330 330 329 329 329 328 326 325 323 321 322 324 325 325 332 336 335 335 334 332 330 327 325 324 324 322 321 320 321 318 311
341 341 341 340 340 341 340 341 341 341 340 340 340 339 339 335 327 322 319 317 313 312 314 316 323 326 324 323 323 325 325 325 324 325 325 324 323 323 323 322 324 326 328 328 327 332 335 335 334 332 329 327 325 324 324 323 321 319 318 320 319 311
341 340 341 340 340 340 340 341 340 341 341 340 340 338 338 333 327 326 326 326 323 320 320 319 321 323 322 320 318 319 320 320 321 320 321 322 324 328 329 328 330 331 331 331 330 333 335 334 333 330 327 325 325 324 323 322 320 318 317 319 319 315
340 340 340 340 339 339 340 340 340 341 340 340 340 338 337 332 328 331 332 333 334 332 333 331 330 331 331 328 322 321 320 319 320 322 326 329 333 335 334 333 333 332 331 332 333 335 335 333 331 327 325 325 324 324 323 322 319 317 317 317 318 318
339 340 339 339 339 339 339 340 340 340 340 340 339 338 337 331 327 335 336 336 337 337 338 338 337 337 337 335 332 331 328 325 328 332 335 337 337 338 336 334 333 332 332 334 335 335 334 332 329 326 325 325 324 323 322 321 319 317 316 314 314 317
339 339 339 339 339 338 339 339 339 339 339 339 338 338 338 329 325 334 335 336 337 337 338 339 339 338 338 337 337 337 335 334 336 337 338 338 338 338 337 335 334 333 333 335 335 334 333 331 328 325 324 324 323 322 322 320 318 317 315 312 310 313
339 339 339 339 338 338 339 339 339 339 339 339 338 338 338 330 323 328 330 333 337 337 338 338 338 339 338 338 338 338 338 338 338 338 338 338 338 338 337 336 334 334 333 334 335 333 332 330 327 325 324 324 324 322 321 318 317 315 312 307 306 310
339 339 339 339 338 338 339 339 339 339 338 338 338 337 337 331 324 323 322 327 336 337 338 338 338 339 338 339 339 339 339 339 338 339 339 338 338 338 337 336 335 334 334 334 335 333 331 329 326 324 324 325 324 323 321 317 315 312 308 305 305 308
339 338 338 339 338 338 338 339 339 338 337 337 337 337 337 333 326 320 316 325 335 337 337 338 338 339 339 339 340 340 340 339 338 339 339 338 338 337 337 337 334 334 334 334 333 332 330 328 325 324 325 324 323 322 319 315 312 308 304 304 305 305
339 338 338 338 338 338 338 339 339 337 337 337 337 337 336 333 326 320 320 329 336 336 336 337 337 338 339 339 339 340 340 339 338 339 339 338 338 337 337 337 335 333 334 333 332 331 330 327 324 325 325 323 323 321 317 313 309 305 302 302 303 303
339 338 338 338 338 338 338 338 338 337 337 337 338 337 335 332 325 323 328 334 336 336 336 337 337 338 339 339 339 340 340 338 339 339 338 338 338 338 337 337 335 333 334 333 332 332 330 327 324 325 324 323 322 318 313 310 306 303 302 301 301 302
339 339 338 337 338 338 337 338 337 337 337 337 338 337 336 332 325 326 333 336 336 336 337 337 337 338 338 339 339 340 339 338 338 338 338 338 338 338 337 336 334 333 333 333 333 332 330 326 323 324 325 323 319 314 310 308 305 304 303 301 300 301
339 339 338 337 337 337 337 337 337 337 337 337 338 337 336 333 326 329 335 335 336 336 336 337 337 338 338 339 339 339 339 338 338 338 338 338 338 337 336 335 333 332 332 332 332 332 330 326 323 323 323 319 314 310 308 307 306 306 305 303 302 303
339 338 338 337 337 337 337 337 337 337 338 337 338 338 337 335 329 330 335 336 336 336 336 337 337 337 338 339 339 339 338 338 338 338 338 339 338 337 335 334 333 331 331 331 330 329 328 326 323 320 318 315 312 309 308 307 307 308 308 307 306 306
339 338 338 337 338 337 337 337 337 337 338 338 338 338 338 337 331 330 334 336 337 337 336 336 337 338 338 339 339 339 338 338 338 338 339 338 337 335 333 333 332 330 329 329 329 328 327 326 324 320 317 315 313 311 309 308 308 309 309 309 308 307
339 338 338 338 338 338 337 337 337 338 338 338 338 338 338 338 333 330 333 335 337 337 336 336 337 338 339 339 339 339 338 338 338 339 338 337 335 334 332 332 331 330 328 327 326 327 327 326 323 320 318 318 317 315 313 311 310 310 309 309 309 308
339 338 338 338 338 338 338 338 337 338 338 338 338 338 339 338 335 333 333 335 336 337 337 337 338 338 339 339 340 339 338 337 338 339 339 336 334 333 332 331 330 330 329 325 322 323 326 324 321 320 320 319 317 317 319 316 313 311 310 310 310 309
339 338 338 338 338 338 338 338 337 338 339 339 338 339 339 339 338 336 336 336 337 337 337 338 339 339 339 339 340 339 337 337 337 338 337 333 332 332 332 331 330 329 329 327 323 321 322 320 320 322 322 320 318 320 321 317 315 314 311 310 310 310
339 339 339 339 339 339 339 338 338 338 339 339 338 339 339 339 338 338 338 338 337 337 337 338 339 339 339 339 339 338 337 337 337 338 336 333 331 331 331 330 330 329 328 329 326 322 319 318 318 319 320 320 320 321 319 315 315 314 311 310 310 310
338 339 340 340 339 339 339 338 338 339 339 339 339 339 339 339 339 339 338 338 337 337 337 338 339 339 339 340 339 338 337 336 337 337 337 333 331 331 332 331 330 329 328 328 327 323 320 318 317 317 318 318 316 316 316 314 315 314 311 311 310 310
338 340 340 340 340 340 339 339 338 339 340 340 339 339 340 339 339 338 338 338 337 337 337 338 338 339 339 339 339 338 337 336 336 337 336 334 332 332 332 332 330 329 328 327 327 325 322 320 319 318 317 315 315 316 315 313 313 313 313 312 310 309
339 341 341 340 340 340 340 339 339 339 340 340 340 340 340 339 339 338 338 338 337 337 337 337 338 339 340 339 338 338 337 336 336 336 336 334 333 333 332 332 330 329 328 327 327 326 324 322 322 321 318 316 317 318 315 311 309 310 312 312 310 309
339 340 341 341 340 340 340 340 339 339 340 340 340 340 340 339 339 338 337 337 337 337 337 337 338 339 340 339 338 338 337 336 336 336 335 333 333 332 331 331 331 329 328 327 326 325 325 324 323 322 320 318 318 318 317 315 312 311 311 312 312 310
339 340 341 341 341 341 340 340 340 339 340 340 340 340 340 339 339 338 337 337 336 337 337 338 339 339 339 339 338 338 338 336 336 335 334 333 333 332 332 331 330 330 329 328 327 326 325 324 323 322 321 320 320 320 320 320 318 315 313 313 313 312
339 340 341 340 341 341 340 340 340 340 340 340 340 339 340 339 338 337 336 336 336 336 337 337 338 338 339 338 337 338 337 336 335 334 334 333 333 332 332 332 331 329 329 328 327 326 325 324 323 322 321 320 320 321 321 322 321 319 317 316 316 316
340 340 340 340 340 341 340 340 340 340 340 339 339 339 340 339 339 338 336 335 335 336 336 337 338 338 338 338 337 337 336 336 335 335 334 333 331 331 331 331 330 329 328 327 326 326 325 324 323 322 322 321 320 320 320 321 321 320 319 317 317 317
339 340 340 340 341 340 340 340 340 340 340 339 339 339 339 340 338 338 336 335 335 336 336 336 338 338 338 337 337 337 336 335 335 334 334 332 330 330 330 329 329 328 327 326 325 324 324 324 323 322 322 322 321 321 320 320 320 320 319 317 317 317
340 340 340 340 340 340 340 340 340 340 340 339 339 339 339 339 338 338 337 336 336 336 336 336 338 338 337 337 336 336 336 334 334 334 333 332 330 329 329 329 328 327 326 325 323 323 322 322 323 322 322 322 322 321 321 320 320 319 318 317 317 316
340 340 339 340 340 340 340 340 339 340 339 338 338 338 338 338 338 338 337 336 336 336 336 337 337 337 337 337 336 336 335 334 334 333 332 331 330 329 328 327 327 325 324 324 323 321 321 321 321 322 322 322 321 321 321 320 319 317 316 315 315 315
340 339 339 339 340 340 340 339 339 339 339 338 337 338 338 338 338 338 337 337 336 336 336 337 337 337 337 336 335 335 334 333 333 331 330 331 329 328 327 326 325 324 323 323 322 320 319 318 319 319 320 321 321 320 320 319 316 314 313 311 311 312

ECMWFFLT2_925_thetae_144.txt.gz
Theta_e
343 344 344 343 342 344 342 340 341 340 339 340 340 339 338 339 339 338 334 328 328 333 333 334 335 334 336 336 337 337 333 332 333 330 329 329 328 329 328 328 328 328 332 334 335 335 335 335 335 335 334 334 335 337 337 339 339 337 337 337 336 336
343 344 344 343 343 343 343 341 342 342 341 341 341 340 339 339 340 338 334 331 331 333 332 333 333 333 336 336 336 336 334 332 333 332 329 329 329 329 328 328 328 328 328 328 331 335 336 336 336 335 335 335 336 337 338 340 339 337 337 336 336 335
344 344 343 343 343 343 343 342 343 343 342 342 342 341 341 341 341 337 334 334 333 333 332 333 333 333 335 336 336 336 335 333 333 333 330 329 329 329 329 329 329 328 326 327 332 336 337 337 336 335 335 336 337 338 339 340 338 337 336 336 336 334
344 344 344 343 343 343 344 342 342 343 343 344 343 342 342 341 340 337 335 334 333 332 332 333 333 334 334 336 337 335 335 333 333 333 331 331 330 329 329 329 329 328 328 331 334 336 335 336 336 336 337 337 337 338 338 338 337 337 335 335 334 333
343 344 343 343 343 343 343 342 342 343 343 344 343 343 342 341 341 337 334 334 333 333 333 332 332 333 333 335 336 336 336 334 334 334 332 334 334 331 331 331 329 330 332 333 334 335 335 335 336 337 337 337 337 337 337 336 336 335 333 333 333 332
343 343 343 343 342 343 343 342 342 343 343 344 343 343 342 341 340 337 334 334 334 333 333 333 332 333 332 332 334 336 336 334 334 334 333 334 334 333 334 333 331 332 333 333 334 335 335 335 336 337 337 336 336 336 336 335 335 334 332 331 331 331
343 343 343 342 342 342 343 343 342 342 343 344 343 343 342 341 339 336 334 334 334 334 334 334 333 332 332 332 332 334 335 334 334 334 334 334 334 334 334 333 332 332 332 332 334 334 335 336 336 336 336 335 335 335 335 334 333 332 331 329 329 329
342 343 342 342 342 341 342 343 342 342 343 343 343 343 342 341 338 334 334 334 334 334 334 335 334 333 333 333 333 333 333 334 334 334 334 334 334 334 333 332 332 332 331 332 333 334 336 336 336 335 334 333 334 333 332 331 331 329 328 328 328 327
342 342 342 341 341 342 341 342 343 342 342 342 342 342 342 340 336 334 334 334 334 334 334 335 335 334 334 334 333 333 333 333 334 334 334 334 334 333 333 333 333 332 331 332 333 334 335 336 336 334 333 333 332 331 330 329 328 327 327 327 326 324
342 342 342 342 341 341 341 342 343 342 342 342 342 342 341 339 336 334 333 333 333 334 335 335 336 336 335 335 334 334 333 334 334 334 335 334 333 332 332 333 334 332 331 332 332 334 335 335 335 334 333 332 331 330 329 328 327 327 326 326 325 322
342 341 341 341 341 341 341 342 342 341 342 342 341 341 341 338 336 334 333 333 332 332 333 335 336 336 335 336 335 335 335 334 334 334 334 333 332 333 333 333 333 332 331 331 332 334 335 334 334 333 332 330 330 329 329 328 327 326 326 325 325 322
342 341 341 341 341 340 341 341 341 341 341 341 341 341 340 337 335 335 334 334 332 331 332 334 336 336 335 335 334 335 334 333 333 332 333 333 333 334 334 333 333 332 332 333 333 334 334 334 333 332 330 329 329 328 328 327 326 325 325 324 323 322
342 342 341 340 340 340 340 341 340 340 340 341 342 341 339 336 335 337 336 335 334 334 334 335 336 336 335 334 333 334 334 334 333 333 334 335 335 335 334 334 334 333 334 335 335 335 335 335 333 331 330 329 329 328 327 326 325 324 322 322 322 321
342 342 342 340 340 340 340 341 340 340 340 341 341 341 339 336 335 338 337 335 336 336 336 338 338 338 338 336 334 335 335 335 335 335 335 336 335 334 334 334 334 335 336 336 336 337 336 335 332 331 329 329 329 327 327 325 324 322 320 319 318 319
341 341 341 340 340 340 340 340 340 340 340 340 341 340 339 337 336 338 336 336 338 338 339 339 339 340 340 338 337 336 335 336 337 337 336 337 336 335 335 335 334 336 337 337 338 337 336 334 332 330 330 329 329 328 326 324 322 320 318 317 315 316
341 341 341 340 340 340 340 340 339 339 339 340 340 340 339 337 336 337 336 337 337 338 340 340 340 340 341 340 339 338 337 337 338 339 338 338 338 337 337 336 336 338 338 338 338 337 336 334 332 330 330 330 329 327 325 323 320 318 316 315 314 315
341 340 340 340 340 339 339 340 340 339 339 340 339 339 339 336 336 336 336 337 337 337 339 339 340 340 341 341 340 341 340 340 340 340 341 341 340 339 339 339 339 339 340 338 337 337 335 333 332 331 330 329 328 326 324 322 318 316 315 313 313 313
341 341 341 341 340 339 340 340 340 339 339 339 339 339 339 336 337 337 335 335 337 338 338 339 340 340 341 341 341 343 343 342 342 341 342 342 340 340 340 341 340 340 340 337 337 336 335 333 332 331 330 328 326 325 323 320 316 315 313 312 312 312
341 341 341 341 341 340 340 340 339 339 339 339 339 339 339 337 337 338 334 333 337 339 339 340 340 340 341 341 342 343 343 343 342 342 342 342 340 341 341 341 341 340 339 337 336 336 334 332 331 331 329 327 325 323 321 318 316 314 312 311 310 310
341 341 341 341 341 341 340 340 339 339 338 339 338 338 339 337 337 338 334 333 337 339 339 340 340 340 341 341 342 343 343 343 342 342 342 342 341 341 341 341 340 339 339 338 336 335 333 331 330 330 328 326 324 322 320 317 316 314 312 310 309 309
342 341 341 341 341 341 340 339 338 339 339 339 338 338 339 338 338 338 335 334 337 338 339 340 339 340 341 341 343 343 343 343 342 341 342 342 342 341 341 340 340 338 338 337 336 334 332 331 330 329 327 324 322 320 318 316 316 315 313 311 309 309
342 341 341 341 341 340 339 338 338 338 338 338 338 338 338 338 338 337 336 336 337 338 339 339 339 340 340 341 342 343 343 342 342 341 342 342 341 341 340 338 338 337 337 336 335 333 331 331 331 330 328 325 322 320 317 316 317 316 314 313 311 310
343 342 341 341 341 340 339 338 338 338 337 338 338 338 338 338 338 338 338 338 338 339 339 339 339 340 340 341 342 343 343 343 342 341 342 342 341 340 338 337 336 336 335 334 333 333 332 332 331 330 329 327 324 322 319 318 317 317 316 314 313 312
343 343 342 341 341 340 339 339 338 338 338 338 338 338 338 338 338 338 338 338 338 339 339 339 339 339 340 341 342 343 343 342 342 341 341 341 340 338 337 336 335 335 335 333 332 332 332 332 331 330 329 328 326 325 325 323 320 318 316 316 314 313
343 343 343 341 340 340 339 339 339 339 339 339 339 339 339 339 339 338 338 338 338 339 338 338 339 339 340 341 342 343 343 342 342 341 341 340 339 338 336 336 335 335 335 334 333 332 332 332 331 330 329 329 327 327 327 325 323 321 317 316 315 313
344 343 343 342 340 340 340 339 339 339 339 339 339 339 339 339 339 338 338 337 338 339 338 338 339 340 340 341 342 343 343 342 342 341 341 339 338 337 336 335 335 335 334 334 333 332 333 332 330 330 330 330 329 328 327 324 324 323 319 317 315 313
344 344 343 342 340 340 340 340 339 339 339 339 339 339 339 339 339 339 338 338 338 339 338 339 339 340 340 340 342 343 342 342 341 340 340 339 337 336 335 335 334 334 334 333 333 333 333 331 330 329 329 330 329 328 326 324 325 324 321 318 316 313
344 343 342 342 341 341 341 340 340 340 339 339 339 339 339 340 340 339 339 339 339 339 339 339 339 340 340 340 341 342 342 341 340 340 339 339 338 336 335 334 334 334 333 333 333 333 332 331 331 330 328 328 327 326 325 324 325 325 324 322 318 314
344 343 343 342 341 341 342 341 341 341 340 340 340 340 340 340 340 339 340 340 339 340 339 339 339 340 340 340 341 342 342 340 340 340 339 339 338 337 335 334 334 334 334 334 333 332 331 331 331 330 328 327 326 324 324 324 324 324 324 323 320 317
343 343 343 343 342 342 342 342 342 341 341 341 340 340 340 341 340 340 340 340 340 340 339 339 339 339 340 340 341 342 341 340 340 340 339 339 338 337 336 335 335 334 334 334 333 332 331 330 330 330 328 327 325 325 325 324 324 324 324 323 321 319
344 343 343 343 343 342 342 343 342 342 342 342 341 341 341 341 341 341 340 341 340 340 339 339 339 339 339 340 341 342 341 340 340 340 339 338 339 338 336 335 335 333 333 333 332 331 331 331 330 330 329 327 326 326 326 325 325 324 324 323 322 320
343 344 343 343 343 343 343 343 343 343 342 342 342 341 342 342 341 341 341 341 341 340 339 339 339 339 339 339 341 342 341 340 340 339 339 338 337 337 336 335 334 333 332 332 332 331 331 331 330 329 329 328 327 327 326 326 325 324 324 324 322 321
343 343 343 343 343 343 343 343 343 343 343 342 342 341 341 342 341 340 340 341 340 340 339 340 340 339 339 339 340 342 341 340 340 339 338 337 336 336 334 334 333 332 332 331 331 331 331 331 330 330 329 328 328 327 326 325 325 324 324 324 323 322
343 343 343 343 343 343 344 344 344 343 343 343 342 342 341 342 341 341 341 341 340 340 339 340 340 339 339 339 339 341 341 340 340 339 338 336 336 334 332 333 333 331 332 332 331 331 331 330 330 329 329 329 328 327 326 325 325 324 324 325 324 322
343 343 343 343 343 344 344 344 344 344 343 343 342 342 342 342 342 341 341 341 339 340 340 339 339 339 339 338 338 340 341 340 340 339 338 336 335 332 331 332 332 331 331 332 331 331 330 329 329 329 328 328 327 326 326 325 324 325 325 325 323 322
343 343 343 343 343 343 344 344 344 344 344 343 343 342 342 342 342 342 341 340 339 340 340 339 339 339 338 337 338 340 340 340 339 338 337 336 334 332 331 331 331 331 331 331 330 330 329 328 328 328 328 328 327 325 325 324 324 325 324 324 322 321
342 343 343 343 343 343 344 344 344 344 344 343 342 342 342 342 342 342 341 340 339 339 339 339 339 339 338 338 339 340 340 339 339 337 336 335 334 333 331 330 330 331 331 329 328 328 328 327 327 327 327 327 327 325 324 324 324 324 324 323 321 320